Location: Barrio de Canyet
(41.4665°N, 2.2381°E)
Time: 08:52:00
(UTC+00:00)

Nadezhda 1 Rocket - Pass Details

Date: 09 April 2020
Orbit: 940 x 1006 km, 83.0° (Epoch: 03 June)

Event Time Altitude Azimuth Distance (km) Brightness Sun altitude
Rises 19:14:41 0° 178° (S) 3,719 6.8 -9.7°
Reaches altitude 10° 19:17:13 10° 176° (S) 2,771 6.1 -10.2°
Maximum altitude 19:23:33 70° 94° (E) 1,060 4.0 -11.3°
Drops below altitude 10° 19:29:51 10° 12° (NNE) 2,764 6.5 -12.4°
Sets 19:32:23 0° 10° (N) 3,708 7.2 -12.8°
